This demonstration page uses our WeatherBlox Daily Observations layout. Learn more.

Left ArrowRight Arrow

Hourly Observations for September 14, 2019

Temp ( °F °C ) Dew Point ( °F °C ) Humidity (%) Winds ( mph kmh ) Pressure ( in mb ) Visibility ( mi km ) Precip ( " mm )
12:01 am 00:01 Cloudy with Nearby Thunderstorms 72 22.2 69 20.6 91 91 NNE 7 11 30.21 1023 5 8 0.04 1.02
12:17 am 00:17 Cloudy with Light Rain 72 22.2 70 21.1 94 94 NNE 7 11 30.21 1023 10 16 0.11 2.79
12:53 am 00:53 Mostly Clear with Light Rain 72 22.2 70 21.1 94 94 NNE 3 6 30.20 1023 10 16 0.22 5.59
1:53 am 01:53 Clear 72 22.2 69 20.6 91 91 ESE 6 9 30.18 1022 10 16 0.11 2.79
2:45 am 02:45 Mostly Cloudy 72 22.2 70 21.1 94 94 NNW 8 13 30.19 1022 10 16 0.01 0.25
2:53 am 02:53 Mostly Cloudy 72 22.2 70 21.1 94 94 N 7 11 30.19 1022 10 16 0.01 0.25
3:05 am 03:05 Cloudy 72 22.2 70 21.1 94 94 N 6 9 30.19 1022 10 16 0.00 0.00
3:12 am 03:12 Cloudy 72 22.2 70 21.1 94 94 N 5 7 30.19 1022 10 16 0.00 0.00
3:48 am 03:48 Mostly Cloudy 72 22 70 21 94 94 NE 3 6 30.18 1022 10 16 0.00 0.00
3:53 am 03:53 Mostly Cloudy 72 22.2 70 21.1 94 94 E 5 7 30.18 1022 10 16 0.00 0.00
4:04 am 04:04 Partly Cloudy 73 22.8 70 21.1 90 90 E 7 11 30.17 1022 10 16 0.00 0.00
4:53 am 04:53 Clear 72 22.2 69 20.6 91 91 ENE 5 7 30.16 1022 10 16 0.00 0.00
5:31 am 05:31 Mostly Clear 72 22.2 69 20.6 91 91 NE 6 9 30.17 1022 10 16 0.00 0.00
5:43 am 05:43 Mostly Cloudy 72 22.2 70 21.1 94 94 N 5 7 30.18 1022 9 14 0.00 0.00
5:53 am 05:53 Cloudy 72 22.2 70 21.1 94 94 N 5 7 30.18 1022 10 16 0.00 0.00
6:45 am 06:45 Cloudy 72 22.2 70 21.1 94 94 ENE 6 9 30.19 1022 10 16 0.00 0.00
6:53 am 06:53 Cloudy 73 22.8 69 20.6 87 87 ENE 7 11 30.19 1022 10 16 0.00 0.00
7:53 am 07:53 Partly Cloudy 72 22.2 69 20.6 91 91 NNE 5 7 30.20 1023 10 16 0.00 0.00
8:01 am 08:01 Mostly Cloudy 72 22.2 70 21.1 94 94 NNE 5 7 30.21 1023 9 14 0.00 0.00
8:51 am 08:51 Mostly Cloudy 73 23 70 21 89 89 ENE 6 9 30.22 1023 10 16 0.00 0.00
8:53 am 08:53 Mostly Cloudy 74 23.3 69 20.6 85 85 NE 6 9 30.22 1024 10 16 0.00 0.00
9:53 am 09:53 Mostly Cloudy 76 24.4 70 21.1 82 82 ENE 6 9 30.24 1024 10 16 0.00 0.00
10:27 am 10:27 Cloudy 77 25 70 21.1 79 79 ENE 9 15 30.23 1024 10 16 0.00 0.00
10:53 am 10:53 Cloudy 78 25.6 70 21.1 76 76 E 9 15 30.24 1024 10 16 0.00 0.00
11:19 am 11:19 Mostly Sunny 81 27.2 70 21.1 69 69 NE 9 15 30.22 1023 10 16 0.00 0.00
11:45 am 11:45 Mostly Cloudy 83 28.3 69 20.6 63 63 NE 8 13 30.21 1023 10 16 0.00 0.00
11:53 am 11:53 Mostly Cloudy 82 27.8 70 21.1 67 67 NE 9 15 30.23 1024 10 16 0.00 0.00
12:21 pm 12:21 Mostly Cloudy 83 28.3 70 21.1 65 65 ENE 8 13 30.20 1023 10 16 0.00 0.00
12:53 pm 12:53 Partly Cloudy 83 28.3 69 20.6 63 63 NE 6 9 30.22 1024 10 16 0.00 0.00
1:53 pm 13:53 Mostly Cloudy 84 28.9 69 20.6 61 61 NE 13 20 30.20 1023 10 16 0.00 0.00
2:53 pm 14:53 Mostly Cloudy 85 29.4 68 20 57 57 E 10 17 30.18 1022 10 16 0.00 0.00
3:53 pm 15:53 Mostly Sunny 85 29.4 67 19.4 55 55 E 6 9 30.15 1021 10 16 0.00 0.00
4:53 pm 16:53 Mostly Sunny 85 29.4 67 19.4 55 55 ENE 8 13 30.15 1021 10 16 0.00 0.00
5:53 pm 17:53 Sunny 85 29.4 66 18.9 53 53 E 6 9 30.13 1020 10 16 0.00 0.00
6:53 pm 18:53 Mostly Sunny 85 29.4 67 19.4 55 55 ENE 7 11 30.13 1020 10 16 0.00 0.00
7:53 pm 19:53 Clear 83 28.3 68 20 61 61 E 6 9 30.14 1021 10 16 0.00 0.00
8:53 pm 20:53 Clear 81 27.2 69 20.6 67 67 Calm 30.14 1021 10 16 0.00 0.00
9:53 pm 21:53 Clear 78 25.6 69 20.6 74 74 NE 6 9 30.16 1022 10 16 0.00 0.00
10:53 pm 22:53 Clear 75 23.9 68 20 79 79 N 3 6 30.14 1021 10 16 0.00 0.00
11:53 pm 23:53 Clear 74 23.3 68 20 82 82 NE 5 7 30.16 1021 10 16 0.00 0.00

Powered by AerisWeather